Regional Weather Roundup
Issued by NWS

Home | Current Version | Previous Version | Text Only | Print | Product List | Glossary Off
Versions: 1 2 3 4 5 6 7 8 9 10 11 12 13 14 15 16 17 18 19 20 21 22 23 24 25 26 27 28 29 30 31 32 33 34 35 36 37 38 39 40 41 42 43 44 45 46 47 48 49 50

000
ASUS43 KMPX 290601
RWRMN
WEATHER ROUNDUP FOR MINNESOTA
NATIONAL WEATHER SERVICE TWIN CITIES/CHANHASSEN MN
100 AM CDT TUE JUL 29 2014


NOTE: "FAIR" INDICATES FEW OR NO CLOUDS BELOW 12,000 FEET WITH NO
SIGNIFICANT WEATHER AND/OR OBSTRUCTIONS TO VISIBILITY. N/A MEANS
CURRENT SKY AND/OR WEATHER CONDITIONS ARE NOT AVAILABLE.

MNZ060>063-068>070-290700-
   Twin Cities Metro

CITY           SKY/WX    TMP DP  RH WIND       PRES   REMARKS
TWIN CITIES    CLEAR     64  56  75 NW8       30.14R
6HR MIN TEMP:  64; 6HR MAX TEMP:  75;

ST PAUL        CLEAR     64  55  72 NW6       30.13S
CRYSTAL        CLEAR     64  55  72 NW6       30.13S
BLAINE         CLEAR     63  57  82 NW5       30.14S
LAKEVILLE      CLEAR     59  55  88 W5        30.15R
EDEN PRAIRIE   CLEAR     65  56  72 NW8       30.13S
6HR MIN TEMP:  64; 6HR MAX TEMP:  75;

SOUTH ST PAUL  CLEAR     65  54  67 CALM      30.13S
LAKE ELMO      FAIR      55  54  94 CALM      30.14S
$$
MNZ001>005-007-008-013>017-022>024-027-028-290700-
   Northwest Minnesota

CITY           SKY/WX    TMP DP  RH WIND       PRES   REMARKS
BEMIDJI        CLEAR     55  52  90 NW5       30.17S
HALLOCK        CLEAR     57  54  88 CALM      30.18R
ROSEAU         CLEAR     61  55  82 W7        30.16S
WARROAD        CLEAR     61  55  82 W7        30.16S
THIEF RVR FALL CLEAR     61  55  82 CALM      30.18S
CROOKSTON      CLEAR     57  55  94 CALM      30.19S
FOSSTON        CLEAR     52  46  82 CALM      30.19S
DETROIT LAKES  CLEAR     59  55  88 CALM      30.20S
MOORHEAD       CLEAR     57  57 100 CALM      30.19S
PARK RAPIDS    CLEAR     53  51  93 NW5       30.18S
$$
MNZ006-009>011-018-025>026-290700-
   North Central Minnesota

CITY           SKY/WX    TMP DP  RH WIND       PRES   REMARKS
BAUDETTE       CLEAR     61  56  83 W3        30.14F
FLAG ISLAND    CLEAR     66  55  68 NW12      30.12S
INTL FALLS     PTCLDY    55  53  93 CALM      30.11S
6HR MIN TEMP:  54; 6HR MAX TEMP:  72;

WASKISH        CLEAR     64  57  77 CALM      30.14S
BIG FORK       CLEAR     55  54  94 CALM      30.14S
LONGVILLE      CLEAR     61  55  82 NW5       30.15S
GRAND RAPIDS   CLEAR     63  54  72 NW9       30.14S
CRANE LAKE     MOCLDY    54  52  94 CALM      30.14R
ORR            CLEAR     54  52  94 CALM      30.10F
COOK           PTCLDY    54  54 100 CALM      30.13S
$$
MNZ012-019>021-037-290700-
   Northeast Minnesota

CITY           SKY/WX    TMP DP  RH WIND       PRES   REMARKS
DULUTH         PTCLDY    61  54  77 NW7       30.10S
6HR MIN TEMP:  61; 6HR MAX TEMP:  72;

ELY            LGT RAIN  57  52  82 CALM      30.11S
HIBBING        PTCLDY    55  52  89 NW3       30.13S
EVELETH        PTCLDY    57  52  82 N3        30.13R
DULUTH HARBOR  PTCLDY    64  57  77 CALM      30.10R
TWO HARBORS    PTCLDY    63  50  63 CALM      30.07S
SILVER BAY     MOCLDY    57  55  94 NW3       30.06S
GRAND MARAIS     N/A     64  51  62 N8G20     30.01F
G MARAIS ARPRT MOCLDY    55  48  76 NW7       30.06F
$$
MNZ029>031-032-039>041-046>048-054>057-064-290700-
   West Central Minnesota

CITY           SKY/WX    TMP DP  RH WIND       PRES   REMARKS
FERGUS FALLS   CLEAR     57  50  77 CALM      30.20R
WHEATON        CLEAR     55  54  94 W3        30.22S
MORRIS         CLEAR     54  52  94 NW5       30.19S
ALEXANDRIA     CLEAR     59  55  87 NW3       30.20F
ELBOW LAKE     FAIR      57  54  91 NW3       30.19S
WADENA         CLEAR     55  54  94 W3        30.18S
GLENWOOD       CLEAR     57  54  88 NW5       30.20S
APPLETON       CLEAR     55  52  88 W6        30.20R
BENSON         CLEAR     54  52  94 CALM      30.20R
ORTONVILLE     CLEAR     57  54  88 NW3       30.20S
MADISON        CLEAR     55  54  94 W6        30.21S
WILLMAR        FAIR      57  54  88 NW3       30.20S
$$
MNZ033>034-036-042>043-049>051-058-059-290700-
   Central Minnesota

CITY           SKY/WX    TMP DP  RH WIND       PRES   REMARKS
ST CLOUD       CLEAR     61  54  77 NW3       30.16R
6HR MIN TEMP:  61; 6HR MAX TEMP:  75;

SAUK CENTRE    FAIR      56  53  88 CALM      30.19S
PAYNESVILLE    CLEAR     52  51  97 SW5       30.19S
AITKIN         CLEAR     59  54  82 CALM      30.13F
PINE RIVER     CLEAR     55  54  94 CALM      30.19S
BRAINERD       CLEAR     61  54  77 NW3       30.17S
STAPLES        CLEAR     55  52  88 W5        30.18S
LONG PRAIRIE   FAIR      55  52  88 NW3       30.19S
LITTLE FALLS   CLEAR     54  52  94 CALM      30.17S
LITCHFIELD     PTCLDY    63  57  82 NW5       30.18S
BUFFALO        CLEAR     63  54  72 NW5       30.16S
MAPLE LAKE     CLEAR     62  56  80 NW3       30.17S
$$
MNZ037-044-045-052-053-290700-
   East Central Minnesota

CITY           SKY/WX    TMP DP  RH WIND       PRES   REMARKS
PRINCETON      CLEAR     59  55  88 W5        30.15S
MORA           CLEAR     55  54  94 CALM      30.16R
CAMBRIDGE      CLEAR     63  52  67 NW3       30.13R
RUSH CITY      PTCLDY    58  54  86 CALM      30.13S
MOOSE LAKE     CLEAR     61  54  77 NW7       30.11S
HINCKLEY       FAIR      57  55  94 CALM      30.13S
CLOQUET        CLEAR     59  52  77 W3        30.12R
MCGREGOR       CLEAR     57  54  88 CALM      30.14S
$$
MNZ071>073-080-081-089-090-097-098-290700-
   Southwest Minnesota

CITY           SKY/WX    TMP DP  RH WIND       PRES   REMARKS
MONTEVIDEO     CLEAR     57  54  88 NW5       30.21S
GRANITE FALLS  CLEAR     53  51  94 W6        30.21S
CANBY          CLEAR     55  51  86 W5        30.22S
MARSHALL       CLEAR     54  48  82 W8        30.20S
REDWOOD FALLS  CLEAR     58  53  84 W7        30.19R
OLIVIA         CLEAR     57  52  82 NW3       30.18S
PIPESTONE      CLEAR     55  52  88 CALM      30.23S
WINDOM         CLEAR     55  52  88 W5        30.21S
WORTHINGTON    CLEAR     54  48  82 NW5       30.23S
JACKSON        CLEAR     55  50  82 W6        30.21S
TRACY          CLEAR     59  52  78 W6        30.22S
SLAYTON        CLEAR     53  51  93 CALM      30.23S
$$
MNZ065>067-074>077-082>085-091>093-290700-
   South Central Minnesota

CITY           SKY/WX    TMP DP  RH WIND       PRES   REMARKS
MANKATO        CLEAR     61  52  72 NW6       30.17R
NEW ULM        CLEAR     59  55  88 NW6       30.18R
ST JAMES       CLEAR     57  54  88 W5        30.20R
FAIRMONT       CLEAR     57  50  77 NW7       30.19S
GLENCOE        CLEAR     62  55  77 W6        30.16R
FARIBAULT      CLEAR     63  54  72 CALM      30.16R
OWATONNA       CLEAR     55  52  88 CALM      30.16R
WASECA         CLEAR     54  48  82 CALM      30.18R
ALBERT LEA     CLEAR     61  54  77 W5        30.16S
$$
MNZ078>079-086>088-094>096-290700-
   Southeast Minnesota

CITY           SKY/WX    TMP DP  RH WIND       PRES   REMARKS
ROCHESTER      CLEAR     57  53  86 W8        30.15S
6HR MIN TEMP:  57; 6HR MAX TEMP:  71;

RED WING       CLEAR     55  54  94 CALM      30.12S
STANTON        CLEAR     57  54  88 CALM      30.13S
DODGE CENTER   PTCLDY    61  55  82 NW7       30.15S
WINONA         CLEAR     59  55  88 CALM      30.12S
AUSTIN         CLEAR     61  54  77 NW3       30.15S
PRESTON        CLEAR     57  56  97 W8        30.15R
$$
ABBREVIATIONS USED IN REMARKS
   TC - TEMPERATURES IN CELSIUS
  WCI - WIND CHILL INDEX
   HX - HEAT INDEX
  VSB - VISIBILITY
$$



USA.gov is the U.S. government's official web portal to all federal, state and local government web resources and services.